Voltar ao catálogo

SLOSHSAT

LostCiênciaHEO
NORAD 28544·PAYLOAD·🇪🇺 EU

Lançado Feb 12, 2005 de Guiana Space Centre

Loading…

Próximas Passagens (próximas 24 horas)

TLE

ObsoletoSource: Space-Track

Época: Apr 4, 2026, 06:57 UTC

1 28544U 05005C   26094.28998134  .00004949  00000-0  10691-2 0  9993
2 28544   7.2238  29.6756 6956334 209.4165  80.5329  2.70296939189186

Acompanhe SLOSHSAT em tempo real com AllMySat

Download on the App Store